SCP
0 0 0 0 0 0 0 0 0 0 0 0 0 0 0 0 0 0 0 0 0 0 0 0 0 0 0 0 0 0 1 2 2 2 2 2 2 1 1 1 1 0 0 0
0 0 0 0 0 0 0 0 0 0 0 0 0 0 0 0 0 0 0 0 0 0 0 0 0 0 0 0 0 1 1 2 2 2 2 2 1 1 0 0 0 0 0 0
0 0 0 0 0 0 0 0 0 0 0 0 0 0 0 0 0 0 0 0 0 0 0 0 0 0 0 0 0 1 2 2 2 2 2 1 0 0 0 0 0 0 0 0
0 0 0 0 0 0 0 0 0 0 0 0 0 0 0 0 0 0 0 0 0 0 0 0 0 0 0 0 1 1 2 2 2 2 1 0 0 0 0 0 0 0 0 0
0 0 0 0 0 0 0 0 0 0 0 0 0 0 0 0 0 0 0 0 0 0 0 0 0 0 0 0 1 1 2 2 2 1 0 0 0 0 0 0 0 0 0 0
0 0 0 0 0 0 0 0 0 0 0 0 0 0 0 0 0 0 0 0 0 0 0 0 0 0 0 0 0 1 1 2 1 1 0 0 0 0 0 0 0 0 0 0
0 0 0 0 0 0 0 0 0 0 0 0 0 0 0 0 0 0 0 0 0 0 0 0 0 0 0 0 0 1 1 1 1 0 0 0 0 0 0 0 0 0 0 0
0 0 0 0 0 0 0 0 0 0 0 0 0 0 0 0 0 0 0 0 0 0 0 0 0 0 0 0 0 0 0 0 0 0 0 0 0 0 0 0 0 0 0 0
0 0 0 0 0 0 0 0 0 0 0 0 0 0 0 0 0 0 0 0 0 0 0 0 0 0 0 0 0 0 0 0 0 0 0 0 0 0 0 0 0 0 0 0
0 0 0 0 0 0 0 0 0 0 0 0 0 0 0 0 0 0 0 0 0 0 0 0 0 0 0 0 0 0 0 0 0 0 0 0 0 0 0 0 0 0 0 0
0 0 0 0 0 0 0 0 0 0 0 0 0 0 0 0 0 0 0 0 0 0 0 0 0 0 0 0 0 0 0 0 0 0 0 0 0 0 0 0 0 0 0 0
0 0 0 0 0 0 0 0 0 0 0 0 0 0 0 0 0 0 0 0 0 0 0 0 0 0 0 0 0 0 0 0 0 0 0 0 0 0 0 0 0 0 0 0
0 0 0 0 0 0 0 0 0 0 0 0 0 0 0 0 0 0 0 0 0 0 0 0 0 0 0 0 0 0 0 0 0 0 0 0 0 0 0 0 0 0 0 0
0 0 0 0 0 0 0 0 0 0 0 0 0 0 0 0 0 0 0 0 0 0 0 0 0 0 0 0 0 0 0 0 0 0 0 0 0 0 0 0 0 0 0 0
0 0 0 0 0 0 0 0 0 0 0 0 0 0 0 0 0 0 0 0 0 0 0 0 0 0 0 0 0 0 0 0 0 0 0 0 0 0 0 0 0 0 0 0
0 0 0 0 0 0 0 0 0 0 0 0 0 0 0 0 0 0 0 0 0 0 0 0 0 0 0 0 0 0 0 0 0 0 0 0 0 0 0 0 0 0 0 0
0 0 0 0 0 0 0 0 0 0 0 0 0 0 0 0 0 0 0 0 0 0 0 0 0 0 0 0 0 0 0 0 0 0 0 0 0 0 0 0 0 0 0 0
0 0 0 0 0 0 0 0 0 0 0 0 0 0 0 0 0 0 0 0 0 0 0 0 0 0 0 0 0 0 0 0 0 0 0 0 0 0 0 0 0 0 0 0
0 0 0 0 0 0 0 0 0 0 0 0 0 0 0 0 0 0 0 0 0 0 0 0 0 0 0 0 0 0 0 0 0 0 0 0 0 0 0 0 0 0 0 0
0 0 0 0 0 0 0 0 0 0 0 0 0 0 0 0 0 0 0 0 0 0 0 0 0 0 0 0 0 0 0 0 0 0 0 0 0 0 0 0 0 0 0 0
0 0 0 0 0 0 0 0 0 0 0 0 0 0 0 0 0 0 0 0 0 0 0 0 0 0 0 0 0 0 0 0 0 0 0 0 0 0 0 0 0 0 0 0
0 0 0 0 0 0 0 0 0 0 0 0 0 0 0 0 0 0 0 0 0 0 0 0 0 0 0 0 0 0 0 0 0 0 0 0 0 0 0 0 0 0 0 0
0 0 0 0 0 0 0 0 0 0 0 0 0 0 0 0 0 0 0 0 0 0 0 0 0 0 0 0 0 0 0 0 0 0 0 0 0 0 0 0 0 0 0 0
0 0 0 0 0 0 0 0 0 0 0 0 0 0 0 0 0 0 0 0 0 0 0 0 0 0 0 0 0 0 0 0 0 0 0 0 0 0 0 0 0 0 0 0
0 0 0 0 0 0 0 0 0 0 0 0 0 0 0 0 0 0 0 0 0 0 0 0 0 0 0 0 0 0 0 0 0 0 0 0 0 0 0 0 0 0 0 0
0 0 0 0 0 0 0 0 0 0 0 0 0 0 0 0 0 0 0 0 0 0 0 0 0 0 0 0 0 0 0 0 0 0 0 0 0 0 0 0 0 0 0 0
Wind_Speed
8 7 10 11 12 7 3 7 9 9 8 12 18 22 21 19 20 21 21 20 19 20 19 17 16 14 13 12 12 12 13 14 12 10 10 8 7 6 6 6 9 9 10 9
7 11 10 6 7 9 11 12 13 12 10 11 19 27 24 23 25 24 23 23 22 22 21 20 18 16 15 14 13 13 13 15 15 12 10 7 8 6 7 7 8 9 10 9
10 2 5 9 10 11 12 14 13 12 13 14 17 23 19 16 18 20 22 23 23 23 23 22 21 19 16 15 14 12 14 15 15 14 10 10 8 7 6 7 7 8 9 9
10 6 4 8 10 11 9 8 11 11 9 8 6 15 15 10 12 15 18 18 20 21 21 21 21 20 18 17 14 13 14 15 16 16 15 17 12 10 9 8 7 9 9 9
9 7 10 11 10 10 6 3 6 8 10 12 10 13 19 9 14 14 16 17 18 18 19 20 20 19 18 16 13 13 14 15 17 16 17 16 13 11 11 10 12 10 9 9
5 5 6 6 6 9 5 4 7 8 7 11 12 14 19 10 11 11 11 13 14 15 16 17 17 17 16 14 13 14 16 16 16 16 17 16 18 18 17 15 13 9 7 7
8 9 7 5 6 7 8 5 4 5 7 11 5 12 18 12 10 12 13 13 13 13 14 15 16 15 15 15 16 16 17 17 17 17 16 16 18 19 19 17 14 12 9 8
8 7 11 11 11 8 12 9 7 6 6 7 7 15 14 12 11 13 14 15 15 16 15 15 15 14 15 17 18 18 19 18 18 17 16 16 17 13 12 13 12 10 9 8
8 4 5 9 9 9 9 10 7 6 8 11 13 14 15 13 13 13 13 14 15 16 16 15 14 14 15 17 18 19 20 19 18 18 17 17 16 14 14 14 12 9 9 9
5 4 4 5 7 10 8 5 5 6 7 11 14 16 12 9 9 10 11 13 15 15 15 13 12 13 14 15 16 18 19 19 19 18 17 14 16 15 15 13 13 12 12 10
7 5 4 7 11 13 11 8 8 7 8 8 12 12 7 9 9 11 13 14 14 15 14 10 9 10 12 14 15 17 18 19 18 18 17 17 16 15 14 13 13 12 11 11
10 5 6 10 8 10 13 14 13 9 10 10 12 17 8 10 10 11 14 14 14 14 11 7 7 10 13 15 16 17 17 18 18 18 18 17 17 16 14 14 13 12 11 10
10 7 5 5 6 8 10 15 17 14 11 13 15 19 7 10 15 16 16 14 12 9 4 3 8 11 13 15 16 16 17 17 18 18 19 18 16 16 15 14 13 12 11 10
9 7 9 7 2 5 9 13 16 16 12 16 23 29 27 25 22 20 15 10 7 3 2 6 9 11 13 14 15 16 17 17 18 18 18 17 16 15 15 14 12 11 10 9
8 7 10 14 15 15 18 20 19 21 22 21 25 28 30 26 21 18 11 5 2 2 5 8 10 12 14 15 15 16 16 16 17 18 17 16 15 15 14 13 12 10 9 8
7 6 7 12 15 17 21 23 22 22 22 23 26 29 25 19 14 12 7 2 3 5 7 9 11 13 14 15 15 16 16 16 16 17 17 16 15 14 13 12 11 10 8 7
7 5 5 8 9 12 14 12 12 12 12 14 16 17 17 16 13 9 4 2 5 7 9 11 11 12 13 14 16 17 17 16 16 17 17 15 15 14 13 11 10 9 7 6
7 5 4 6 7 9 4 1 6 10 13 13 16 17 15 13 10 6 2 3 7 9 10 11 12 12 13 14 15 16 16 16 16 16 16 15 14 13 12 11 9 8 6 4
10 6 4 4 6 11 8 3 3 6 8 7 9 11 10 7 5 2 2 4 7 9 11 12 12 13 14 15 16 17 16 16 16 16 15 14 13 13 11 10 8 6 5 3
10 8 5 5 5 7 4 3 3 4 6 5 7 9 8 5 3 4 4 6 10 11 12 13 13 14 15 15 16 17 16 16 15 15 14 13 12 11 10 9 7 5 3 2
7 7 9 9 7 9 7 5 3 3 5 8 8 8 6 3 3 3 5 8 11 13 14 14 14 13 14 15 16 16 16 15 14 14 13 12 10 10 9 8 5 4 3 1
9 7 8 7 8 9 2 2 3 5 7 8 7 6 3 2 4 6 8 11 12 13 14 14 13 13 13 14 15 16 15 14 14 14 13 11 10 8 7 7 5 3 1 1
9 8 5 8 8 4 2 5 6 6 8 7 5 4 2 4 5 7 10 11 12 12 12 12 14 14 12 12 13 16 15 15 14 14 12 10 9 7 6 5 4 2 1 1
6 6 6 7 10 10 10 9 6 4 4 4 3 1 3 5 8 10 10 11 11 12 12 12 14 14 13 12 13 14 15 14 14 13 11 9 8 7 5 3 2 1 1 2
5 6 7 9 10 9 7 3 2 1 3 3 4 4 5 9 10 11 11 11 11 11 11 12 13 14 14 14 14 13 13 13 13 12 10 8 6 6 4 3 1 1 1 3
7 9 8 7 4 4 3 2 2 2 3 4 6 8 8 9 12 12 12 11 12 12 12 13 14 15 14 14 14 12 11 12 13 10 8 6 5 4 3 2 1 1 2 4
Wind_Direction
166 192 210 212 218 246 264 252 260 266 279 286 273 272 270 268 263 260 258 256 253 252 251 250 248 246 240 230 221 212 199 187 175 173 172 165 159 142 128 125 131 130 128 127
169 225 228 225 224 236 246 259 267 277 279 281 283 280 273 262 256 254 254 252 250 250 248 245 241 237 232 226 215 207 196 183 178 175 168 158 135 119 110 110 115 120 124 124
201 174 213 207 215 227 239 249 261 274 298 278 287 285 267 251 245 248 248 248 248 246 245 242 236 230 225 222 213 201 192 182 177 166 146 131 117 114 113 118 113 117 120 118
222 211 179 198 220 225 248 247 256 269 276 282 290 293 287 273 250 243 245 244 243 242 241 241 238 231 222 216 208 198 186 178 171 161 160 160 159 152 145 136 124 121 117 116
203 202 207 220 226 213 239 238 245 257 269 278 249 261 279 262 256 250 247 246 245 245 243 241 238 233 226 212 199 188 178 174 168 168 166 165 153 136 129 128 127 121 115 116
211 191 212 224 224 214 207 219 252 250 257 260 243 234 275 271 264 266 260 256 253 251 249 247 242 233 225 207 190 179 173 170 167 166 166 161 148 143 140 140 136 130 125 123
211 211 204 186 173 179 195 209 241 228 226 249 244 238 257 276 274 272 273 274 272 268 261 254 244 229 215 199 186 177 171 166 165 163 162 153 151 149 147 145 144 141 137 138
202 210 195 198 207 190 195 206 230 259 260 274 243 246 260 273 274 269 270 277 281 277 270 260 247 228 210 195 185 177 170 164 162 159 152 146 145 142 140 142 141 139 137 137
203 210 162 197 203 198 184 213 242 276 282 274 257 258 273 259 259 264 274 281 281 280 274 263 248 226 206 192 184 176 166 160 157 151 144 143 142 139 137 136 133 128 130 134
202 217 179 171 189 217 224 195 186 214 260 268 268 264 261 275 273 280 286 289 291 291 282 264 242 217 198 188 179 169 161 154 149 144 140 139 138 136 135 133 133 133 134 136
198 213 186 180 204 198 193 202 211 230 248 271 285 276 287 283 288 298 298 297 300 297 284 260 228 200 182 171 165 158 151 145 143 140 137 135 134 134 132 130 131 133 135 138
195 214 238 231 223 219 214 216 211 230 240 242 271 278 286 281 294 300 297 298 298 294 279 246 196 170 163 159 155 150 145 143 139 136 134 132 131 132 130 130 131 133 134 134
170 199 238 221 198 203 228 232 231 239 259 255 259 270 288 293 298 297 295 296 296 291 265 184 153 154 154 151 147 143 140 137 135 134 132 131 132 131 130 130 131 132 131 131
178 209 231 255 267 196 227 233 229 231 243 255 254 270 284 291 296 300 299 294 295 279 169 141 143 144 144 143 140 137 134 135 135 133 131 131 131 130 129 129 130 131 131 131
191 230 240 258 268 267 262 260 251 242 244 255 268 275 282 290 298 301 298 289 280 140 133 135 139 139 138 136 134 132 132 135 134 131 128 127 127 126 126 128 128 128 126 125
202 249 259 264 262 263 266 264 261 256 253 253 265 273 278 288 294 296 292 240 156 142 138 136 137 139 138 137 135 133 133 134 132 128 126 126 127 127 128 129 129 127 126 127
203 226 256 274 285 284 268 263 257 251 250 251 259 266 287 300 307 306 288 179 150 147 144 142 142 141 139 139 138 135 134 132 128 126 126 128 128 128 129 129 129 129 130 134
207 209 244 283 294 261 269 330 274 277 273 260 259 272 290 304 313 317 286 158 147 146 143 141 139 136 134 133 132 130 130 129 127 126 127 129 130 130 130 130 130 130 131 138
214 213 236 259 275 280 288 282 278 296 290 297 290 295 304 309 298 17 66 131 140 140 135 133 133 133 132 133 134 131 128 128 127 129 131 133 133 132 133 133 130 129 136 140
207 212 230 247 269 272 295 323 308 269 283 345 328 318 322 319 336 40 81 119 125 126 125 126 129 131 132 135 136 132 130 131 131 131 131 131 132 132 131 129 127 130 136 137
182 201 221 237 254 270 285 307 296 278 335 333 324 323 323 325 6 49 101 113 119 121 123 127 130 132 135 139 137 131 130 129 128 127 125 124 124 123 123 123 125 132 135 161
191 195 202 209 229 252 254 261 259 305 317 312 317 323 324 68 81 97 106 112 117 121 127 130 128 127 134 139 135 128 125 124 124 123 120 119 119 118 123 125 127 130 140 253
212 213 208 216 234 268 251 250 277 296 293 304 313 319 152 130 114 110 110 113 118 122 125 126 125 125 129 133 131 125 125 127 124 121 119 118 116 115 124 128 131 133 130 324
221 215 232 253 260 269 275 279 281 287 292 320 322 292 164 139 128 119 116 115 116 119 122 126 126 124 123 121 119 122 127 127 124 122 121 122 121 123 125 121 120 109 12 334
224 190 219 249 271 286 278 274 296 50 59 57 63 84 119 126 124 121 117 116 116 117 120 122 122 120 119 117 117 122 126 127 123 121 121 122 123 128 124 115 80 11 16 328
206 202 211 238 248 253 308 34 74 101 88 94 100 96 100 114 118 116 111 112 114 115 115 115 115 115 116 117 117 120 126 127 125 123 125 124 126 122 118 114 121 203 292 318